APJ067 RJFF-RKPC

Flight info

Callsign APJ067
Flight time 0h 56m
Altitude 34000
Route DGC A595 TAMNA TAMNA2P
Aircraft A20N/M-SABDE1E2E3FGIJ1RWXYZ/LB1

Departure

Time 2026-05-09 05:19
Airport Fukuoka Airport (RJFF)

Arrival

Time 2026-05-09 06:15
Airport Jeju International Airport (RKPC)
Time Latitude Longitude Altitude Speed Heading
2026-05-09 04:41 33.58881 130.44321 44 ft 0 kts 240°
2026-05-09 05:08 33.58884 130.44327 44 ft 3 kts 240°
2026-05-09 05:08 33.58897 130.44354 44 ft 3 kts 240°
2026-05-09 05:08 33.58911 130.44382 44 ft 3 kts 240°
2026-05-09 05:08 33.58924 130.44409 44 ft 3 kts 240°
2026-05-09 05:09 33.58937 130.44438 44 ft 3 kts 250°
2026-05-09 05:09 33.58933 130.44466 44 ft 3 kts 306°
2026-05-09 05:09 33.58922 130.44476 44 ft 0 kts 332°
2026-05-09 05:14 33.58923 130.44476 44 ft 0 kts 332°
2026-05-09 05:14 33.58931 130.44470 44 ft 3 kts 324°
2026-05-09 05:14 33.58919 130.44459 44 ft 6 kts 173°
2026-05-09 05:15 33.58854 130.44493 44 ft 14 kts 151°
2026-05-09 05:15 33.58755 130.44562 44 ft 17 kts 149°
2026-05-09 05:15 33.58649 130.44634 44 ft 17 kts 150°
2026-05-09 05:15 33.58543 130.44707 44 ft 17 kts 150°
2026-05-09 05:16 33.58436 130.44780 44 ft 17 kts 147°
2026-05-09 05:16 33.58328 130.44855 44 ft 18 kts 150°
2026-05-09 05:16 33.58216 130.44931 44 ft 18 kts 149°
2026-05-09 05:16 33.58105 130.45006 44 ft 18 kts 150°
2026-05-09 05:17 33.57992 130.45085 44 ft 19 kts 150°
2026-05-09 05:17 33.57875 130.45165 44 ft 19 kts 150°
2026-05-09 05:17 33.57757 130.45244 44 ft 19 kts 150°
2026-05-09 05:17 33.57644 130.45323 44 ft 16 kts 148°
2026-05-09 05:18 33.57645 130.45416 44 ft 13 kts 32°
2026-05-09 05:18 33.57733 130.45393 44 ft 13 kts 329°
2026-05-09 05:18 33.57892 130.45287 44 ft 56 kts 330°
2026-05-09 05:18 33.58431 130.44914 44 ft 120 kts 330°
2026-05-09 05:19 33.59315 130.44312 161 ft 160 kts 330°
2026-05-09 05:19 33.60287 130.43640 752 ft 163 kts 330°
2026-05-09 05:19 33.61310 130.42956 1224 ft 176 kts 332°
2026-05-09 05:19 33.62442 130.42238 1664 ft 191 kts 332°
2026-05-09 05:20 33.63664 130.41472 2100 ft 208 kts 333°
2026-05-09 05:20 33.65012 130.40639 2477 ft 230 kts 333°
2026-05-09 05:20 33.66482 130.39682 2970 ft 248 kts 326°
2026-05-09 05:20 33.67622 130.38066 3639 ft 261 kts 296°
2026-05-09 05:21 33.68065 130.35974 4496 ft 266 kts 278°
2026-05-09 05:21 33.68278 130.33772 5420 ft 267 kts 279°
2026-05-09 05:21 33.68514 130.31584 6291 ft 269 kts 279°
2026-05-09 05:21 33.68762 130.29382 7168 ft 270 kts 280°
2026-05-09 05:22 33.69019 130.27159 8054 ft 272 kts 280°
2026-05-09 05:22 33.69283 130.24893 8904 ft 275 kts 280°
2026-05-09 05:22 33.69546 130.22643 9751 ft 276 kts 280°
2026-05-09 05:22 33.69813 130.20363 10552 ft 280 kts 280°
2026-05-09 05:23 33.70090 130.18004 11001 ft 296 kts 280°
2026-05-09 05:23 33.70386 130.15486 11517 ft 308 kts 280°
2026-05-09 05:23 33.70681 130.12949 12302 ft 311 kts 280°
2026-05-09 05:23 33.70978 130.10393 13097 ft 312 kts 281°
2026-05-09 05:24 33.71278 130.07805 13877 ft 314 kts 281°
2026-05-09 05:24 33.71582 130.05199 14635 ft 316 kts 281°
2026-05-09 05:24 33.71889 130.02567 15382 ft 318 kts 281°
2026-05-09 05:24 33.72192 129.99959 16088 ft 320 kts 281°
2026-05-09 05:25 33.72496 129.97322 16832 ft 321 kts 280°
2026-05-09 05:25 33.72806 129.94636 17525 ft 322 kts 280°
2026-05-09 05:25 33.73421 129.89290 18805 ft 327 kts 279°
2026-05-09 05:26 33.73734 129.86574 19457 ft 329 kts 279°
2026-05-09 05:26 33.74044 129.83861 20134 ft 329 kts 279°
2026-05-09 05:26 33.74350 129.81123 20780 ft 330 kts 277°
2026-05-09 05:26 33.74509 129.78389 21414 ft 331 kts 272°
2026-05-09 05:27 33.74461 129.75617 22015 ft 333 kts 268°
2026-05-09 05:27 33.74220 129.72829 22610 ft 335 kts 265°
2026-05-09 05:27 33.73934 129.70077 23192 ft 336 kts 265°
2026-05-09 05:27 33.73638 129.67285 23763 ft 336 kts 265°
2026-05-09 05:28 33.73346 129.64519 24315 ft 337 kts 264°
2026-05-09 05:28 33.73044 129.61696 24842 ft 338 kts 264°
2026-05-09 05:28 33.72749 129.58929 25342 ft 339 kts 264°
2026-05-09 05:28 33.72442 129.56079 25692 ft 345 kts 263°
2026-05-09 05:29 33.72136 129.53230 26072 ft 348 kts 263°
2026-05-09 05:29 33.71823 129.50349 26506 ft 350 kts 263°
2026-05-09 05:29 33.71513 129.47476 26981 ft 350 kts 263°
2026-05-09 05:29 33.71199 129.44577 27426 ft 351 kts 263°
2026-05-09 05:30 33.70881 129.41650 27841 ft 352 kts 263°
2026-05-09 05:30 33.70564 129.38741 28229 ft 353 kts 262°
2026-05-09 05:30 33.70247 129.35841 28637 ft 354 kts 262°
2026-05-09 05:30 33.69923 129.32899 29044 ft 355 kts 262°
2026-05-09 05:31 33.69598 129.29948 29434 ft 356 kts 262°
2026-05-09 05:31 33.69275 129.26993 29820 ft 357 kts 262°
2026-05-09 05:31 33.68953 129.24072 30282 ft 356 kts 262°
2026-05-09 05:31 33.68630 129.21149 30809 ft 354 kts 262°
2026-05-09 05:32 33.68308 129.18227 31316 ft 352 kts 262°
2026-05-09 05:32 33.67986 129.15335 31777 ft 350 kts 262°
2026-05-09 05:32 33.67665 129.12445 32220 ft 349 kts 262°
2026-05-09 05:32 33.67342 129.09554 32624 ft 348 kts 262°
2026-05-09 05:33 33.67026 129.06711 32923 ft 349 kts 262°
2026-05-09 05:33 33.66701 129.03816 33199 ft 351 kts 262°
2026-05-09 05:33 33.66377 129.00919 33494 ft 351 kts 262°
2026-05-09 05:33 33.66050 128.98004 33778 ft 352 kts 262°
2026-05-09 05:34 33.65721 128.95091 34021 ft 353 kts 262°
2026-05-09 05:34 33.65393 128.92177 34111 ft 354 kts 262°
2026-05-09 05:34 33.64735 128.86365 34120 ft 353 kts 262°
2026-05-09 05:35 33.64072 128.80530 34126 ft 352 kts 262°
2026-05-09 05:35 33.63407 128.74710 34123 ft 353 kts 262°
2026-05-09 05:36 33.62738 128.68874 34123 ft 352 kts 263°
2026-05-09 05:36 33.62071 128.63057 34124 ft 354 kts 262°
2026-05-09 05:37 33.61396 128.57233 34123 ft 352 kts 263°
2026-05-09 05:37 33.60720 128.51421 34121 ft 353 kts 263°
2026-05-09 05:38 33.60040 128.45578 34123 ft 353 kts 263°
2026-05-09 05:38 33.59364 128.39790 34125 ft 353 kts 263°
2026-05-09 05:39 33.58676 128.33954 34124 ft 352 kts 262°
2026-05-09 05:39 33.58009 128.28143 34121 ft 353 kts 263°
2026-05-09 05:40 33.57365 128.22316 34122 ft 353 kts 263°
2026-05-09 05:40 33.56713 128.16492 34122 ft 352 kts 263°
2026-05-09 05:41 33.56065 128.10680 34120 ft 352 kts 263°
2026-05-09 05:41 33.55405 128.04860 34126 ft 352 kts 263°
2026-05-09 05:42 33.54752 127.99075 34122 ft 353 kts 263°
2026-05-09 05:42 33.54092 127.93253 34122 ft 352 kts 263°
2026-05-09 05:43 33.53428 127.87453 34122 ft 353 kts 263°
2026-05-09 05:43 33.52761 127.81632 34122 ft 353 kts 263°
2026-05-09 05:44 33.52091 127.75815 34125 ft 353 kts 263°
2026-05-09 05:44 33.51418 127.69998 34122 ft 354 kts 263°
2026-05-09 05:45 33.50739 127.64149 34121 ft 354 kts 263°
2026-05-09 05:45 33.50055 127.58293 34130 ft 354 kts 263°
2026-05-09 05:46 33.49377 127.52487 34123 ft 354 kts 263°
2026-05-09 05:46 33.48686 127.46632 34121 ft 353 kts 263°
2026-05-09 05:47 33.48000 127.40815 34121 ft 354 kts 263°
2026-05-09 05:47 33.47311 127.35013 33671 ft 353 kts 263°
2026-05-09 05:48 33.46962 127.32072 32565 ft 365 kts 263°
2026-05-09 05:48 33.46596 127.29005 31210 ft 381 kts 263°
2026-05-09 05:48 33.46228 127.25897 30208 ft 385 kts 262°
2026-05-09 05:48 33.45850 127.22759 29874 ft 374 kts 262°
2026-05-09 05:49 33.45484 127.19729 29474 ft 367 kts 263°
2026-05-09 05:49 33.45121 127.16730 28747 ft 369 kts 263°
2026-05-09 05:49 33.44750 127.13657 27605 ft 380 kts 263°
2026-05-09 05:49 33.44373 127.10528 26272 ft 394 kts 263°
2026-05-09 05:50 33.43973 127.07232 25050 ft 404 kts 263°
2026-05-09 05:50 33.43573 127.03935 23956 ft 410 kts 263°
2026-05-09 05:50 33.43156 127.00519 22861 ft 416 kts 263°
2026-05-09 05:50 33.42739 126.97107 21720 ft 423 kts 263°
2026-05-09 05:51 33.42313 126.93604 20501 ft 431 kts 263°
2026-05-09 05:51 33.41882 126.90092 19816 ft 425 kts 263°
2026-05-09 05:51 33.41461 126.86683 19525 ft 410 kts 264°
2026-05-09 05:51 33.41050 126.83356 19196 ft 398 kts 264°
2026-05-09 05:52 33.40652 126.80135 18755 ft 390 kts 264°
2026-05-09 05:52 33.40261 126.76969 18324 ft 382 kts 264°
2026-05-09 05:52 33.39875 126.73856 17950 ft 373 kts 264°
2026-05-09 05:52 33.39496 126.70796 17344 ft 371 kts 264°
2026-05-09 05:53 33.39121 126.67763 16763 ft 369 kts 265°
2026-05-09 05:53 33.39153 126.64738 16183 ft 361 kts 285°
2026-05-09 05:53 33.40232 126.62056 15689 ft 354 kts 309°
2026-05-09 05:53 33.42037 126.60149 15210 ft 351 kts 329°
2026-05-09 05:54 33.44199 126.58843 14776 ft 347 kts 333°
2026-05-09 05:54 33.46376 126.57546 14306 ft 344 kts 333°
2026-05-09 05:54 33.48500 126.56259 13858 ft 340 kts 333°
2026-05-09 05:54 33.50583 126.54990 13420 ft 337 kts 333°
2026-05-09 05:55 33.52663 126.53719 12989 ft 334 kts 333°
2026-05-09 05:55 33.54734 126.52451 12554 ft 331 kts 333°
2026-05-09 05:55 33.56788 126.51193 12119 ft 328 kts 333°
2026-05-09 05:55 33.58812 126.49950 11688 ft 326 kts 333°
2026-05-09 05:56 33.60829 126.48714 11255 ft 323 kts 334°
2026-05-09 05:56 33.62801 126.47503 10828 ft 320 kts 334°
2026-05-09 05:56 33.64765 126.46298 10482 ft 315 kts 334°
2026-05-09 05:56 33.66685 126.45118 10297 ft 304 kts 334°
2026-05-09 05:57 33.68530 126.43981 10155 ft 286 kts 334°
2026-05-09 05:57 33.70227 126.42879 10021 ft 268 kts 327°
2026-05-09 05:57 33.71426 126.41239 9849 ft 263 kts 300°
2026-05-09 05:57 33.71913 126.39132 9588 ft 264 kts 283°
2026-05-09 05:58 33.72178 126.36989 9357 ft 258 kts 283°
2026-05-09 05:58 33.72443 126.34862 9142 ft 252 kts 283°
2026-05-09 05:58 33.72707 126.32824 8987 ft 244 kts 283°
2026-05-09 05:58 33.72975 126.30791 8969 ft 244 kts 283°
2026-05-09 05:59 33.73243 126.28784 8965 ft 244 kts 283°
2026-05-09 05:59 33.73515 126.26758 8964 ft 245 kts 283°
2026-05-09 05:59 33.73783 126.24753 8964 ft 246 kts 283°
2026-05-09 05:59 33.73977 126.22697 8970 ft 248 kts 275°
2026-05-09 06:00 33.73894 126.20612 8967 ft 252 kts 268°
2026-05-09 06:00 33.73665 126.18533 8964 ft 252 kts 266°
2026-05-09 06:00 33.73410 126.16422 8965 ft 253 kts 266°
2026-05-09 06:00 33.73157 126.14325 8964 ft 253 kts 265°
2026-05-09 06:01 33.72767 126.12262 8959 ft 257 kts 256°
2026-05-09 06:01 33.72093 126.10248 8959 ft 260 kts 250°
2026-05-09 06:01 33.71321 126.08263 8956 ft 260 kts 249°
2026-05-09 06:01 33.70552 126.06322 8957 ft 260 kts 249°
2026-05-09 06:02 33.69757 126.04362 8959 ft 261 kts 245°
2026-05-09 06:02 33.68743 126.02535 8957 ft 264 kts 234°
2026-05-09 06:02 33.67532 126.00856 8958 ft 264 kts 231°
2026-05-09 06:02 33.66297 125.99234 8959 ft 264 kts 231°
2026-05-09 06:03 33.65065 125.97619 8958 ft 264 kts 231°
2026-05-09 06:03 33.63748 125.96073 8957 ft 265 kts 222°
2026-05-09 06:03 33.62239 125.94799 8961 ft 267 kts 214°
2026-05-09 06:03 33.60644 125.93642 8960 ft 267 kts 213°
2026-05-09 06:04 33.59030 125.92501 8957 ft 267 kts 213°
2026-05-09 06:04 33.57430 125.91389 8954 ft 267 kts 209°
2026-05-09 06:04 33.55709 125.90532 8955 ft 269 kts 198°
2026-05-09 06:04 33.53882 125.89930 8959 ft 269 kts 195°
2026-05-09 06:05 33.52045 125.89393 8957 ft 270 kts 195°
2026-05-09 06:05 33.50233 125.88864 8955 ft 269 kts 195°
2026-05-09 06:05 33.48361 125.88475 8956 ft 270 kts 185°
2026-05-09 06:05 33.46501 125.88578 8895 ft 271 kts 161°
2026-05-09 06:06 33.44957 125.89744 8639 ft 261 kts 124°
2026-05-09 06:06 33.44260 125.91669 8298 ft 250 kts 91°
2026-05-09 06:06 33.44323 125.93716 7910 ft 248 kts 81°
2026-05-09 06:06 33.44498 125.95798 7311 ft 260 kts 82°
2026-05-09 06:07 33.44655 125.98010 6639 ft 270 kts 83°
2026-05-09 06:07 33.44784 126.00249 6074 ft 273 kts 84°
2026-05-09 06:07 33.44891 126.02502 5634 ft 267 kts 84°
2026-05-09 06:07 33.44987 126.04704 5141 ft 261 kts 84°
2026-05-09 06:08 33.45076 126.06805 4894 ft 249 kts 84°
2026-05-09 06:08 33.45160 126.08865 4712 ft 240 kts 84°
2026-05-09 06:08 33.45241 126.10815 4549 ft 232 kts 84°
2026-05-09 06:08 33.45318 126.12693 4389 ft 224 kts 84°
2026-05-09 06:09 33.45393 126.14526 4232 ft 216 kts 84°
2026-05-09 06:09 33.45466 126.16289 4080 ft 208 kts 84°
2026-05-09 06:09 33.45536 126.18018 3881 ft 203 kts 84°
2026-05-09 06:09 33.45605 126.19689 3633 ft 201 kts 84°
2026-05-09 06:10 33.45655 126.21364 3358 ft 201 kts 90°
2026-05-09 06:10 33.45329 126.22980 3223 ft 205 kts 111°
2026-05-09 06:10 33.44661 126.24531 3107 ft 207 kts 115°
2026-05-09 06:10 33.43956 126.26038 2982 ft 206 kts 116°
2026-05-09 06:11 33.43256 126.27534 2869 ft 206 kts 115°
2026-05-09 06:11 33.42564 126.29034 2852 ft 206 kts 115°
2026-05-09 06:11 33.42056 126.30617 2827 ft 201 kts 88°
2026-05-09 06:11 33.42351 126.32213 2807 ft 197 kts 60°
2026-05-09 06:12 33.43067 126.33614 2540 ft 198 kts 53°
2026-05-09 06:12 33.43854 126.34972 2149 ft 199 kts 54°
2026-05-09 06:12 33.44598 126.36341 1834 ft 189 kts 56°
2026-05-09 06:12 33.45263 126.37631 1795 ft 170 kts 56°
2026-05-09 06:13 33.45838 126.38763 1746 ft 148 kts 56°
2026-05-09 06:13 33.46366 126.39797 1702 ft 146 kts 56°
2026-05-09 06:13 33.46889 126.40846 1348 ft 148 kts 56°
2026-05-09 06:13 33.47413 126.41877 1127 ft 143 kts 57°
2026-05-09 06:14 33.47943 126.42905 957 ft 144 kts 55°
2026-05-09 06:14 33.48478 126.43914 809 ft 145 kts 57°
2026-05-09 06:14 33.49000 126.44940 508 ft 142 kts 56°
2026-05-09 06:14 33.49519 126.45935 306 ft 141 kts 55°
2026-05-09 06:15 33.50040 126.46943 110 ft 140 kts 57°
2026-05-09 06:15 33.50517 126.47875 83 ft 119 kts 58°
2026-05-09 06:15 33.50863 126.48546 69 ft 66 kts 58°
2026-05-09 06:15 33.51016 126.48897 73 ft 32 kts 79°
2026-05-09 06:16 33.51027 126.49054 76 ft 7 kts 87°
2026-05-09 06:16 33.51016 126.49109 77 ft 5 kts 135°
2026-05-09 06:16 33.50990 126.49133 78 ft 4 kts 147°
2026-05-09 06:16 33.50967 126.49150 79 ft 3 kts 146°
2026-05-09 06:17 33.50946 126.49168 80 ft 3 kts 145°
2026-05-09 06:17 33.50914 126.49193 81 ft 7 kts 146°
2026-05-09 06:17 33.50859 126.49231 84 ft 9 kts 159°
2026-05-09 06:17 33.50798 126.49233 85 ft 7 kts 171°
2026-05-09 06:18 33.50759 126.49242 86 ft 1 kts 169°
2026-05-09 06:18 33.50758 126.49242 86 ft 0 kts 169°
2026-05-09 06:18 33.50757 126.49242 87 ft 0 kts 169°